Location: ?????????
(54.7630°N, 39.4991°E)
Time: 07:00:22
(UTC+00:00)

Cosmos 1140 Rocket - Pass Details

Date: 14 April 2026
Orbit: 740 x 761 km, 74.1° (Epoch: 12 May)

Event Time Altitude Azimuth Distance (km) Brightness Sun altitude
Rises 19:56:01 0° 332° (NNW) 3,215 8.2 -23.1°
Reaches altitude 10° 19:58:24 10° 330° (NNW) 2,283 7.1 -23.2°
Maximum altitude 20:03:33 76° 247° (WSW) 776 3.4 -23.5°
Enters shadow 20:04:18 63° 187° (S) 834 3.4 -23.5°
